This demonstration page uses our WeatherBlox Daily Observations layout. Learn more.

Left ArrowRight Arrow

39.95238, -75.16362

Hourly Observations for September 2, 2019

Temp ( °F °C ) Dew Point ( °F °C ) Humidity (%) Winds ( mph kmh ) Pressure ( in mb ) Visibility ( mi km ) Precip ( " mm )
12:54 am 00:54 Partly Cloudy 69 20.6 63 17.2 81 81 E 5 7 30.19 1023 10 16 0.00 0.00
1:54 am 01:54 Mostly Cloudy 68 20 63 17.2 84 84 E 6 9 30.17 1022 10 16 0.00 0.00
2:54 am 02:54 Mostly Cloudy 67 19.4 63 17.2 87 87 E 3 6 30.16 1021 10 16 0.00 0.00
3:30 am 03:30 Cloudy 68 20 63 17.2 84 84 E 3 6 30.15 1021 10 16 0.00 0.00
3:54 am 03:54 Cloudy 68 20 63 17.2 84 84 E 3 6 30.14 1021 10 16 0.00 0.00
4:54 am 04:54 Mostly Cloudy 67 19.4 63 17.2 87 87 E 5 7 30.12 1020 10 16 0.00 0.00
5:37 am 05:37 Cloudy 68 20 63 17.2 84 84 E 3 6 30.12 1020 10 16 0.00 0.00
5:54 am 05:54 Cloudy 68 20 64 17.8 87 87 ESE 5 7 30.12 1020 10 16 0.00 0.00
6:38 am 06:38 Mostly Cloudy 68 20 63 17.2 84 84 SE 3 6 30.11 1020 10 16 0.00 0.00
6:54 am 06:54 Mostly Cloudy 68 20 64 17.8 87 87 SE 3 6 30.11 1020 10 16 0.00 0.00
7:41 am 07:41 Mostly Cloudy 69 20.6 64 17.8 84 84 E 3 6 30.12 1020 10 16 0.00 0.00
7:54 am 07:54 Mostly Cloudy 69 20.6 65 18.3 87 87 SE 6 9 30.11 1020 10 16 0.00 0.00
8:54 am 08:54 Cloudy 73 22.8 67 19.4 81 81 S 7 11 30.09 1019 10 16 0.00 0.00
9:30 am 09:30 Mostly Cloudy with Light Rain 77 25 69 20.6 77 77 S 14 22 30.08 1019 10 16 0.00 0.00
9:54 am 09:54 Cloudy with Light Rain 77 25 69 20.6 77 77 WSW 17 28 30.08 1019 10 16 0.00 0.00
10:05 am 10:05 Cloudy with Nearby Thunderstorms 75 23.9 69 20.6 82 82 W 15 24 30.07 1018 10 16 0.00 0.00
10:14 am 10:14 Cloudy with Nearby Thunderstorms 75 23.9 71 21.7 88 88 WSW 14 22 30.07 1018 10 16 0.01 0.25
10:21 am 10:21 Cloudy with Light Rain 75 23.9 71 21.7 88 88 SW 13 20 30.06 1018 10 16 0.01 0.25
10:54 am 10:54 Mostly Cloudy 80 26.7 69 20.6 69 69 SW 16 26 30.05 1018 10 16 0.01 0.25
11:54 am 11:54 Mostly Cloudy 83 28.3 68 20 61 61 WSW 15 24 30.03 1017 10 16 0.00 0.00
12:54 pm 12:54 Mostly Cloudy 83 28.3 67 19.4 59 59 SW 15 24 30.01 1016 10 16 0.00 0.00
1:54 pm 13:54 Mostly Cloudy 83 28.3 67 19.4 59 59 WSW 16 26 30.00 1016 10 16 0.00 0.00
2:54 pm 14:54 Mostly Cloudy 86 30 63 17.2 46 46 WSW 17 28 29.97 1015 10 16 0.00 0.00
3:54 pm 15:54 Partly Cloudy 86 30 64 17.8 48 48 WSW 13 20 29.95 1014 10 16 0.00 0.00
4:39 pm 16:39 Mostly Cloudy with Thunderstorms 85 29.4 64 17.8 50 50 SW 12 19 29.94 1014 10 16 0.00 0.00
4:54 pm 16:54 Mostly Cloudy with Thunderstorms 86 30 64 17.8 48 48 WSW 14 22 29.94 1014 10 16 0.00 0.00
5:05 pm 17:05 Mostly Cloudy with Thunderstorms 85 29.4 64 17.8 50 50 W 13 20 29.95 1014 10 16 0.00 0.00
5:10 pm 17:10 Mostly Cloudy with Thunderstorms 81 27.2 67 19.4 62 62 NNW 15 24 29.96 1014 10 16 0.00 0.00
5:20 pm 17:20 Windy with Storms Likely 76 24.4 70 21.1 82 82 N 20 31 29.95 1014 6 10 0.00 0.00
5:34 pm 17:34 Mostly Cloudy with Strong Thunderstorms 73 22.8 70 21.1 90 90 NNW 18 30 29.98 1015 2 3 0.12 3.05
5:46 pm 17:46 Mostly Cloudy with Thunderstorms 73 22.8 69 20.6 87 87 NNW 16 26 29.96 1014 3 5 0.22 5.59
5:49 pm 17:49 Mostly Cloudy with Thunderstorms 72 22 68 20 88 88 N 12 19 29.96 1015 6 10 0.22 5.59
5:54 pm 17:54 Mostly Cloudy with Thunderstorms 73 22.8 67 19.4 81 81 N 10 17 29.96 1015 6 10 0.23 5.84
5:58 pm 17:58 Mostly Cloudy with Thunderstorms 72 22.2 68 20 87 87 N 8 13 29.96 1015 8 13 0.00 0.00
6:12 pm 18:12 Mostly Cloudy 73 22.8 68 20 84 84 N 6 9 29.96 1014 10 16 0.00 0.00
6:54 pm 18:54 Mostly Cloudy 75 23.9 70 21.1 84 84 Calm 29.95 1014 10 16 0.00 0.00
7:54 pm 19:54 Mostly Cloudy 74 23.3 71 21.7 91 91 S 3 6 29.97 1015 10 16 0.00 0.00
8:54 pm 20:54 Mostly Cloudy 73 22.8 70 21.1 90 90 Calm 29.98 1015 10 16 0.00 0.00
9:54 pm 21:54 Mostly Cloudy 74 23.3 70 21.1 88 88 Calm 29.99 1016 10 16 0.00 0.00
10:54 pm 22:54 Mostly Cloudy 73 22.8 69 20.6 87 87 Calm 29.99 1016 10 16 0.00 0.00
11:54 pm 23:54 Mostly Cloudy 74 23.3 70 21.1 88 88 Calm 29.99 1016 10 16 0.00 0.00

Powered by AerisWeather